Location: Lecco
(45.8566°N, 9.3977°E)
Time: 03:37:17
(UTC+02:00)

Transit 4A - Pass Details

Date: 23 August 2020
Orbit: 863 x 982 km, 66.8° (Epoch: 23 September)

Event Time Altitude Azimuth Distance (km) Brightness Sun altitude
Rises 11:17:03 0° 297° (WNW) 3,587 10.6 46.0°
Reaches altitude 10° 11:21:49 10° 330° (NNW) 2,677 10.0 46.6°
Maximum altitude 11:23:46 11° 348° (NNW) 2,586 10.0 46.8°
Drops below altitude 10° 11:25:43 10° 7° (N) 2,701 10.2 47.1°
Sets 11:30:38 0° 40° (NE) 3,673 11.0 47.7°
